Regional Weather Roundup
Issued by NWS Wilmington, NC

Home | Current Version | Previous Version | Text Only | Print | Product List | Glossary On
Versions: 1 2 3 4 5 6 7 8 9 10 11 12 13 14 15 16 17 18 19 20 21 22 23 24 25 26 27
000
ASUS42 KILM 241713
RWRILM
RWRILM
REGIONAL HOURLY WEATHER ROUNDUP
NATIONAL WEATHER SERVICE WILMINGTON NC
100 PM EDT SAT JUN 24 2017

NOTE: "FAIR" INDICATES FEW OR NO CLOUDS BELOW 12,000 FEET WITH NO
SIGNIFICANT WEATHER AND/OR OBSTRUCTIONS TO VISIBILITY.

...............WFO WILMINGTON COUNTY WARNING AREA...............

......COASTAL NC AND SC COUNTIES......

CITY           SKY/WX    TMP DP  RH WIND       PRES   REMARKS
WILMINGTON     MOSUNNY   91  71  51 SW17G25   29.97S HX  97
N MYRTLE BEACH MOSUNNY   89  73  59 SW16      29.99S HX  97
MYRTLE BEACH   MOSUNNY   90  72  55 SW12G22   30.00S HX  96

......INLAND NC AND SC COUNTIES.......

CITY           SKY/WX    TMP DP  RH WIND       PRES   REMARKS
LUMBERTON      MOSUNNY   89  74  60 SW13      29.95F HX  98
ELIZABETHTOWN  NOT AVBL
WHITEVILLE     MOSUNNY   90  73  58 SW8       29.97F HX  98
FLORENCE       MOSUNNY   90  74  59 W13       29.97S HX  99
DARLINGTON     PTSUNNY   88  75  65 S15       29.96F HX  97
KINGSTREE      FAIR      88  73  62 SW9G17    29.99S HX  96
HARTSVILLE       N/A    N/A N/A N/A MISG        N/A
BENNETTSVILLE  FAIR      91  73  55 SW8       29.95S HX 100
CONWAY         FAIR      90  72  55 SW8       29.99S HX  96
GEORGETOWN     FAIR      90  72  55 W14       30.02S HX  96
MARION         FAIR      88  72  58 SW7G16    29.97F HX  94

....................REST OF NORTH CAROLINA......................

.........EASTERN NC.........

CITY           SKY/WX    TMP DP  RH WIND       PRES   REMARKS
CAPE HATTERAS  SUNNY     84  75  74 SW17G25   29.96S HX  92
JACKSONVILLE   PTSUNNY   89  77  67 SW6       29.96S HX 101
MOREHEAD CITY  SUNNY     86  80  82 SW25      29.96F HX 101
KENANSVILLE    PTSUNNY   90  75  62 SW6       29.95F HX 100
NEW BERN       CLOUDY    87  75  67 W9        29.96S HX  96
ELIZABETH CITY CLOUDY    87  72  60 W9        29.92S HX  93

.........CENTRAL NC.........

CITY           SKY/WX    TMP DP  RH WIND       PRES   REMARKS
RALEIGH DURHAM PTSUNNY   90  73  57 SW6       29.95S HX  98
ROCKY MOUNT    SUNNY     88  71  57 W7        29.94S HX  94
ROANOKE RAPIDS NOT AVBL
FAYETTEVILLE   PTSUNNY   92  75  57 SW13      29.94S HX 103
HOFFMAN        PTSUNNY   88  74  61 SW12G20   29.95S HX  97

.........WESTERN NC.........

CITY           SKY/WX    TMP DP  RH WIND       PRES   REMARKS
CHARLOTTE      PTSUNNY   82  72  71 SW7       29.98F
GREENSBORO     PTSUNNY   85  71  63 W9        29.95F HX  90
HICKORY        NOT AVBL
BOONE          NOT AVBL
ASHEVILLE      NOT AVBL

.....................REST OF SOUTH CAROLINA.....................

.........EASTERN SC.........

CITY           SKY/WX    TMP DP  RH WIND       PRES   REMARKS
CHARLESTON     MOSUNNY   91  69  48 SW13      30.01F HX  96
BEAUFORT MCAS  SUNNY     90  72  55 SW12G17   30.03S HX  97
HILTON HEAD    SUNNY     88  77  70 S12       30.03F HX 100

.........CENTRAL SC.........

CITY           SKY/WX    TMP DP  RH WIND       PRES   REMARKS
COLUMBIA       PTSUNNY   89  72  56 W13       29.98S HX  96
ORANGEBURG     LGT RAIN  89  73  59 SW14      30.00S HX  97
SUMTER SHAW    MOSUNNY   88  73  60 SW13      29.96S HX  95

.........WESTERN SC.........

CITY           SKY/WX    TMP DP  RH WIND       PRES   REMARKS
GREENVILLE     NOT AVBL
ROCK HILL      CLOUDY    83  73  72 W9        29.99F
ANDERSON       CLOUDY    80  72  76 SW14      30.01R
CLEMSON        NOT AVBL
GREENWOOD      CLOUDY    81  71  71 SW10      30.02F


...................COASTAL AND OFFSHORE REPORTS..................

................LOCAL PIERS AND NC RESERVE................


STATION/POSITION TIME  SKY/WX   TEMP    WIND        PRES    VSBY
                                AIR SEA DIR/SP/G
                 (UTC)          (F)     (DEG/KT/KT) (MB)    (MI)
JOHNY MRCER PIER 1648            83 80  190/ 18/ 21 1014.0S
NC RESRV MASNBRO 1545            89     250/  5     1016.0
OCEAN CREST PIER NOT AVBL
SPRINGMAID  PIER 1648                               1015.1S


................COASTAL AND OFFSHORE BUOYS................


STATION/POSITION TIME  SKY/WX   TEMP    WIND        PRES    VSBY
                                AIR SEA DIR/SP/G
                 (UTC)          (F)     (DEG/KT/KT) (MB)    (MI)
DIMNDSHOAL 41025 1650            80 80  240/ 21/ 23 1014.5R
WVE H/P(F/S)=  8/ 8

CAPE LOOKOUT     1700            83     220/ 14/ 21 1014.5F
ONSLOW BAY 41036 NOT AVBL
ONSLOW BAY 41064 1608            80 80  240/ 19/ 23 1015.8R
ONSLOW BAY 41159 1643               80                N/A
WVE H/P(F/S)=  7/ 7

MASNBO INL 41110 1659               78                N/A
WVE H/P(F/S)=  4/ 7

WILM HARBR 41108 NOT AVBL
27SE WRITB 41037 1608            79 80  220/ 17/ 23 1015.6R
FRYING PAN 41013 1650            81 80  230/ 17/ 21 1016.5S
WVE H/P(F/S)=  6/ 6 SWL H/P/D(F/S/D)=  2/150/ 9

SUNST NRSH 41024 1608            80 79  220/ 10/ 14 1015.7R
CAPRS NRSH 41029 1608            87 83  230/ 16/ 21 1016.5R
EDISTO     41004 1650            81 81  220/ 14/ 17 1017.3R
WVE H/P(F/S)=  5/ 6 SWL H/P/D(F/S/D)=  2/140/ 9



..........OFFSHORE BUOYS BEYOND 100 NM OFFSHORE...........
.....IN A TRIANGLE---HAT TO BERMUDA TO BAHAMAS TO HAT.....


STATION/POSITION TIME  SKY/WX   TEMP    WIND        PRES    VSBY
                                AIR SEA DIR/SP/G
                 (UTC)          (F)     (DEG/KT/KT) (MB)    (MI)
150E HAT   41001 1650            80 79  220/ 19/ 25 1017.4R
WVE H/P(F/S)=  8/ 7 SWL H/P/D(F/S/D)=  2/160/15

W BERMUDA  41048 1650            81 81  240/ 10/ 12 1021.9R
WVE H/P(F/S)=  3/ 8 SWL H/P/D(F/S/D)=  3/130/ 8

ATLANTIC S 41049 1550            81 82  110/ 10/ 12 1022.9
WVE H/P(F/S)=  4/ 8 SWL H/P/D(F/S/D)=  3/ 80/ 8

E BAHAMAS  41046 1650            82 83  110/ 12/ 16 1020.3S
WVE H/P(F/S)=  4/ 8 SWL H/P/D(F/S/D)=  3/ 90/ 8

NE BAHAMAS 41047 1650            82 83  130/ 10/ 12 1021.6S
WVE H/P(F/S)=  3/ 8 SWL H/P/D(F/S/D)=  3/110/ 8

120E CANVRL41010 1650            83 83  190/ 10/ 12 1020.0S
WVE H/P(F/S)=  4/ 8 SWL H/P/D(F/S/D)=  3/110/ 8


END




USA.gov is the U.S. government's official web portal to all federal, state and local government web resources and services.